EW1423 Weather Reports


Display with metric or nautical units.
time (UTC)temp
F
wind
direction
speed
MPH
gust
MPH
rain 1hr
in
rain 24hr
in
rain mn
in
humidity
%
barometer
mb
20260510140303 76 71 2.0 5.0 0.00 0.00 0.00 49 1007.2
20260510135804 76 97 2.0 7.0 0.00 0.00 0.00 48 1007.3
20260510135306 76 67 1.0 3.0 0.00 0.00 0.00 47 1007.3
20260510134804 76 115 2.0 5.0 0.00 0.00 0.00 49 1007.3
20260510133804 76 92 2.0 5.0 0.00 0.00 0.00 48 1007.3
20260510132804 76 113 1.0 6.0 0.00 0.00 0.00 48 1007.9
20260510132306 76 110 2.0 6.0 0.00 0.00 0.00 48 1007.9
20260510131804 77 134 2.0 5.0 0.00 0.00 0.00 47 1007.9
20260510130804 77 129 2.0 6.0 0.00 0.00 0.00 44 1007.9
20260510130304 77 114 2.0 5.0 0.00 0.00 0.00 44 1007.9
20260510125804 78 85 1.0 10.0 0.00 0.00 0.00 46 1007.9
20260510125306 78 117 2.0 5.0 0.00 0.00 0.00 44 1007.9
20260510123803 78 124 2.0 7.0 0.00 0.00 0.00 40 1007.9
20260510123304 79 157 2.0 10.0 0.00 0.00 0.00 39 1008.1
20260510122804 79 158 3.0 9.0 0.00 0.00 0.00 39 1008.1
20260510122306 79 121 3.0 8.0 0.00 0.00 0.00 39 1008.1
20260510121803 79 119 3.0 12.0 0.00 0.00 0.00 40 1008.1
20260510121303 79 140 3.0 8.0 0.00 0.00 0.00 39 1008.3
20260510120304 79 125 2.0 7.0 0.00 0.00 0.00 41 1008.3
20260510115803 79 103 3.0 9.0 0.00 0.00 0.00 40 1008.3
20260510115306 79 88 3.0 9.0 0.00 0.00 0.00 37 1008.4
20260510114803 79 130 5.0 10.0 0.00 0.00 0.00 38 1008.4
20260510114304 79 49 3.0 10.0 0.00 0.00 0.00 39 1008.4
20260510113804 80 70 1.0 8.0 0.00 0.00 0.00 44 1008.7
20260510112804 79 44 2.0 5.0 0.00 0.00 0.00 40 1008.7
20260510112306 79 69 2.0 6.0 0.00 0.00 0.00 42 1008.7
20260510111803 79 130 2.0 6.0 0.00 0.00 0.00 41 1009.7
20260510111303 78 115 3.0 10.0 0.00 0.00 0.00 41 1009.7
20260510110804 79 49 2.0 9.0 0.00 0.00 0.00 42 1009.7
20260510110303 79 124 4.0 10.0 0.00 0.00 0.00 39 1009.7
20260510105818 79 125 1.0 5.0 0.00 0.00 0.00 43 1009.7
20260510105306 78 101 2.0 10.0 0.00 0.00 0.00 44 1009.7
20260510104303 77 70 2.0 7.0 0.00 0.00 0.00 45 1009.7
20260510103804 78 109 2.0 10.0 0.00 0.00 0.00 44 1009.7
20260510102804 77 100 3.0 9.0 0.00 0.00 0.00 45 1009.7
20260510102306 77 132 3.0 12.0 0.00 0.00 0.00 44 1009.7
20260510101803 77 152 3.0 9.0 0.00 0.00 0.00 45 1009.7
20260510101303 77 122 3.0 6.0 0.00 0.00 0.00 46 1009.7
20260510100804 77 123 2.0 8.0 0.00 0.00 0.00 46 1009.7
20260510095803 75 109 2.0 8.0 0.00 0.00 0.00 49 1010.3
20260510095305 75 117 2.0 5.0 0.00 0.00 0.00 48 1010.3
20260510094804 75 129 3.0 9.0 0.00 0.00 0.00 52 1010.3
20260510094303 75 126 3.0 13.0 0.00 0.00 0.00 50 1010.3
20260510093303 73 132 2.0 5.0 0.00 0.00 0.00 54 1010.3
20260510092804 73 92 2.0 7.0 0.00 0.00 0.00 53 1010.3
20260510092306 73 116 3.0 6.0 0.00 0.00 0.00 54 1010.3
20260510091804 73 122 2.0 6.0 0.00 0.00 0.00 53 1010.3
20260510091303 73 58 2.0 5.0 0.00 0.00 0.00 53 1010.5
20260510090304 73 41 2.0 7.0 0.00 0.00 0.00 54 1010.7
20260510085804 73 129 1.0 3.0 0.00 0.00 0.00 53 1010.7
20260510085306 73 59 2.0 8.0 0.00 0.00 0.00 56 1010.7
20260510084803 73 339 1.0 3.0 0.00 0.00 0.00 56 1010.7
20260510084303 73 346 1.0 2.0 0.00 0.00 0.00 58 1010.7
20260510083804 71 346 1.0 2.0 0.00 0.00 0.00 59 1010.7
20260510083303 71 347 1.0 2.0 0.00 0.00 0.00 60 1010.8
20260510082804 71 347 1.0 3.0 0.00 0.00 0.00 60 1010.8
20260510082306 71 319 1.0 2.0 0.00 0.00 0.00 62 1010.9
20260510081804 70 319 1.0 3.0 0.00 0.00 0.00 61 1010.9
20260510081303 70 294 0.0 2.0 0.00 0.00 0.00 63 1010.9
20260510080803 70 294 0.0 1.0 0.00 0.00 0.00 61 1010.9
20260510080304 69 294 1.0 2.0 0.00 0.00 0.00 63 1010.9
20260510075306 68 294 0.0 2.0 0.00 0.00 0.00 66 1011.1
20260510074804 68 306 1.0 3.0 0.00 0.00 0.00 65 1011.1
20260510074303 67 348 1.0 2.0 0.00 0.00 0.00 63 1011.1
20260510073804 67 349 1.0 2.0 0.00 0.00 0.00 67 1011.2
20260510072804 66 352 1.0 3.0 0.00 0.00 0.00 66 1011.2
20260510072306 66 355 0.0 2.0 0.00 0.00 0.00 66 1011.2
20260510071803 65 355 1.0 2.0 0.00 0.00 0.00 68 1011.3
20260510071304 65 355 0.0 1.0 0.00 0.00 0.00 69 1011.3
20260510070804 65 355 0.0 3.0 0.00 0.00 0.00 68 1011.3
20260510070303 65 355 0.0 1.0 0.00 0.00 0.00 69 1011.3
20260510065803 64 355 0.0 1.0 0.00 0.00 0.00 70 1011.4
20260510065306 64 355 0.0 2.0 0.00 0.00 0.00 71 1011.4
20260510064803 63 0 1.0 1.0 0.00 0.00 0.00 73 1011.4
20260510064304 63 0 0.0 1.0 0.00 0.00 0.00 74 1011.4
20260510063804 62 0 0.0 1.0 0.00 0.00 0.00 76 1011.5
20260510063303 62 0 1.0 2.0 0.00 0.00 0.00 75 1011.5
20260510062803 61 0 0.0 1.0 0.00 0.00 0.00 79 1011.5
20260510062307 60 0 0.0 1.0 0.00 0.00 0.00 81 1011.5
20260510060804 57 0 1.0 3.0 0.00 0.00 0.00 84 1011.8
20260510060304 57 355 1.0 2.0 0.00 0.00 0.00 84 1011.8
20260510055306 55 254 0.0 2.0 0.00 0.00 0.00 89 1011.8
20260510054803 54 254 0.0 1.0 0.00 0.00 0.00 92 1011.8
20260510054304 53 254 0.0 1.0 0.00 0.00 0.00 92 1011.8
20260510053303 51 254 0.0 1.0 0.00 0.00 0.00 95 1011.8
20260510052804 51 254 0.0 1.0 0.00 0.00 0.00 96 1011.8
20260510051804 50 254 0.0 1.0 0.00 0.00 0.00 99 1012.0
20260510051303 49 254 0.0 0.0 0.00 0.00 0.00 100 1012.0
20260510050804 48 254 0.0 0.0 0.00 0.00 0.00 100 1012.0
20260510050315 48 254 0.0 0.0 0.00 0.00 0.00 100 1012.0
20260510045803 47 254 0.0 0.0 0.00 0.00 0.00 100 1012.0
20260510045306 47 254 0.0 0.0 0.00 0.00 0.00 100 1012.0
20260510044804 47 254 0.0 0.0 0.00 0.00 0.00 100 1012.0
20260510044303 46 254 0.0 0.0 0.00 0.00 0.00 100 1012.0
20260510043804 46 254 0.0 0.0 0.00 0.00 0.00 100 1012.0
20260510043304 46 254 0.0 0.0 0.00 0.00 0.00 100 1012.0
20260510042804 46 254 0.0 0.0 0.00 0.00 0.00 100 1012.0
20260510042306 46 254 0.0 0.0 0.00 0.00 0.00 100 1012.1
20260510041804 46 254 0.0 0.0 0.00 0.00 0.00 100 1012.1
20260510041303 46 254 0.0 0.0 0.00 0.00 0.00 100 1012.3
20260510040803 46 254 0.0 0.0 0.00 0.00 0.00 100 1012.3
20260510040304 46 254 0.0 0.0 0.00 0.00 0.00 100 1012.3
20260510035803 46 254 0.0 0.0 0.00 0.00 0.00 100 1012.3
20260510033803 45 254 0.0 0.0 0.00 0.00 0.00 99 1012.2
20260510033303 46 254 0.0 0.0 0.00 0.00 0.00 99 1012.2
20260510032803 46 254 0.0 0.0 0.00 0.00 0.00 100 1012.2
20260510032306 46 254 0.0 0.0 0.00 0.00 0.00 100 1012.2
20260510031803 46 254 0.0 0.0 0.00 0.00 0.00 99 1012.2
20260510031304 46 254 0.0 0.0 0.00 0.00 0.00 99 1012.3
20260510030803 46 254 0.0 0.0 0.00 0.00 0.00 99 1012.3
20260510025803 47 254 0.0 0.0 0.00 0.00 0.00 99 1012.5
20260510025306 47 254 0.0 0.0 0.00 0.00 0.00 99 1012.5
20260510024803 47 254 0.0 0.0 0.00 0.00 0.00 99 1012.5
20260510024303 47 254 0.0 0.0 0.00 0.00 0.00 99 1012.5
20260510023803 47 254 0.0 0.0 0.00 0.00 0.00 99 1012.5
20260510023303 47 254 0.0 0.0 0.00 0.00 0.00 99 1012.6
20260510022804 47 254 0.0 0.0 0.00 0.00 0.00 99 1012.6
20260510022306 47 254 0.0 0.0 0.00 0.00 0.00 99 1012.6
20260510021803 47 254 0.0 0.0 0.00 0.00 0.00 98 1012.6
20260510020303 47 254 0.0 1.0 0.00 0.00 0.00 98 1012.6
20260510015804 48 254 0.0 0.0 0.00 0.00 0.00 98 1012.6
20260510015306 48 254 0.0 0.0 0.00 0.00 0.00 98 1012.8
20260510014804 48 254 0.0 0.0 0.00 0.00 0.00 97 1012.8
20260510014304 48 254 0.0 0.0 0.00 0.00 0.00 98 1013.4
20260510013804 48 254 0.0 0.0 0.00 0.00 0.00 97 1013.4
20260510013304 49 254 0.0 1.0 0.00 0.00 0.00 97 1013.4
20260510012804 49 254 0.0 0.0 0.00 0.00 0.00 97 1013.4
20260510012306 49 254 0.0 1.0 0.00 0.00 0.00 97 1013.4
20260510011804 49 254 0.0 0.0 0.00 0.00 0.00 98 1013.4
20260510011304 49 254 0.0 0.0 0.00 0.00 0.00 97 1013.4
20260510010804 49 254 0.0 0.0 0.00 0.00 0.00 98 1013.4
20260510010303 49 254 0.0 0.0 0.00 0.00 0.00 97 1013.4
20260510005804 49 254 0.0 0.0 0.00 0.00 0.00 97 1013.4
20260510005306 49 254 0.0 0.0 0.00 0.00 0.00 97 1013.4
20260510004804 49 254 0.0 0.0 0.00 0.00 0.00 97 1013.4
20260510004304 49 254 0.0 1.0 0.00 0.00 0.00 97 1013.4
20260510003803 49 254 0.0 0.0 0.00 0.00 0.00 96 1013.4
20260510003303 49 254 0.0 0.0 0.00 0.00 0.00 97 1013.4
20260510002803 49 254 0.0 0.0 0.00 0.00 0.00 97 1013.4
20260510002306 49 254 0.0 0.0 0.00 0.00 0.00 96 1013.4
20260510001804 49 254 0.0 0.0 0.00 0.00 0.00 96 1013.4
20260510000803 50 254 0.0 0.0 0.00 0.00 0.00 96 1013.6
20260510000304 50 254 0.0 0.0 0.00 0.00 0.00 96 1013.6
20260509235803 50 254 0.0 0.0 0.00 0.00 0.00 95 1013.6
20260509235306 50 254 0.0 0.0 0.00 0.00 0.00 95 1013.6
20260509234803 50 254 0.0 0.0 0.00 0.00 0.00 94 1013.8
20260509234303 51 254 0.0 0.0 0.00 0.00 0.00 94 1013.8
20260509233803 51 254 0.0 0.0 0.00 0.00 0.00 94 1013.8
20260509233303 51 254 0.0 0.0 0.00 0.00 0.00 94 1013.8
20260509232804 51 254 0.0 0.0 0.00 0.00 0.00 94 1013.9
20260509232306 51 254 0.0 0.0 0.00 0.00 0.00 94 1013.9
20260509231819 51 254 0.0 0.0 0.00 0.00 0.00 93 1013.9
20260509231304 51 254 0.0 0.0 0.00 0.00 0.00 93 1013.9
20260509230803 52 254 0.0 0.0 0.00 0.00 0.00 93 1013.9
20260509230303 52 254 0.0 0.0 0.00 0.00 0.00 93 1013.9
20260509225804 52 254 0.0 0.0 0.00 0.00 0.00 93 1013.9
20260509225306 52 254 0.0 0.0 0.00 0.00 0.00 93 1013.9
20260509224304 52 254 0.0 0.0 0.00 0.00 0.00 92 1013.9
20260509223804 52 254 0.0 0.0 0.00 0.00 0.00 92 1013.9
20260509223303 53 254 0.0 0.0 0.00 0.00 0.00 91 1013.9
20260509222804 53 254 0.0 0.0 0.00 0.00 0.00 91 1013.9
20260509222306 53 254 0.0 0.0 0.00 0.00 0.00 91 1013.9
20260509221803 53 254 0.0 0.0 0.00 0.00 0.00 91 1013.9
20260509221304 53 254 0.0 0.0 0.00 0.00 0.00 91 1013.9
20260509220810 53 254 0.0 0.0 0.00 0.00 0.00 90 1013.9
20260509220304 54 254 0.0 0.0 0.00 0.00 0.00 90 1013.8
20260509215803 54 254 0.0 0.0 0.00 0.00 0.00 90 1013.8
20260509215306 54 254 0.0 0.0 0.00 0.00 0.00 90 1013.8
20260509214804 54 254 0.0 0.0 0.00 0.00 0.00 89 1013.8
20260509214303 54 254 0.0 0.0 0.00 0.00 0.00 89 1013.8
20260509213804 55 254 0.0 0.0 0.00 0.00 0.00 89 1013.8
20260509212803 55 254 0.0 0.0 0.00 0.00 0.00 88 1013.8
20260509212306 55 254 0.0 0.0 0.00 0.00 0.00 86 1013.8
20260509211304 56 254 0.0 0.0 0.00 0.00 0.00 85 1013.8
20260509210804 57 254 0.0 0.0 0.00 0.00 0.00 84 1013.9
20260509210318 57 254 0.0 0.0 0.00 0.00 0.00 83 1013.9
20260509205804 57 254 0.0 0.0 0.00 0.00 0.00 82 1013.9
20260509204804 58 254 0.0 0.0 0.00 0.00 0.00 80 1014.0
20260509204304 59 254 0.0 1.0 0.00 0.00 0.00 79 1014.0
20260509203804 59 254 0.0 0.0 0.00 0.00 0.00 78 1014.0
20260509203319 60 254 0.0 1.0 0.00 0.00 0.00 77 1014.0
20260509202803 60 254 0.0 1.0 0.00 0.00 0.00 75 1013.9
20260509202306 61 254 0.0 1.0 0.00 0.00 0.00 73 1013.9
20260509201804 62 254 0.0 1.0 0.00 0.00 0.00 72 1014.0
20260509201304 62 254 0.0 0.0 0.00 0.00 0.00 71 1014.0
20260509200804 63 254 0.0 1.0 0.00 0.00 0.00 70 1014.0
20260509200304 63 254 0.0 1.0 0.00 0.00 0.00 68 1014.0
20260509195804 63 254 0.0 5.0 0.00 0.00 0.00 69 1013.8
20260509195306 63 4 1.0 2.0 0.00 0.00 0.00 70 1013.8
20260509194303 63 9 1.0 3.0 0.00 0.00 0.00 68 1013.8
20260509193803 63 23 1.0 3.0 0.00 0.00 0.00 69 1013.8
20260509193303 64 15 1.0 2.0 0.00 0.00 0.00 67 1013.6
20260509192804 64 15 0.0 1.0 0.00 0.00 0.00 67 1013.6
20260509192306 64 15 0.0 1.0 0.00 0.00 0.00 66 1013.6
20260509191804 65 15 1.0 5.0 0.00 0.00 0.00 66 1013.6
20260509191304 65 5 1.0 2.0 0.00 0.00 0.00 65 1013.6
20260509190804 65 37 1.0 5.0 0.00 0.00 0.00 65 1013.6
20260509190303 65 355 1.0 3.0 0.00 0.00 0.00 66 1013.6
20260509185803 65 355 0.0 2.0 0.00 0.00 0.00 65 1013.6
20260509185306 66 355 1.0 2.0 0.00 0.00 0.00 64 1013.6
20260509184803 66 344 0.0 2.0 0.00 0.00 0.00 63 1013.6
20260509183804 67 29 0.0 2.0 0.00 0.00 0.00 61 1013.6
20260509183304 68 319 0.0 1.0 0.00 0.00 0.00 59 1013.6
20260509182306 69 338 1.0 2.0 0.00 0.00 0.00 56 1013.6
20260509181804 69 334 0.0 2.0 0.00 0.00 0.00 56 1013.6
20260509181304 69 334 1.0 2.0 0.00 0.00 0.00 56 1013.6
20260509180803 70 50 0.0 3.0 0.00 0.00 0.00 55 1013.6
20260509180303 70 300 1.0 2.0 0.00 0.00 0.00 55 1013.6
20260509175803 70 302 1.0 3.0 0.00 0.00 0.00 54 1013.6
20260509175306 71 0 1.0 3.0 0.00 0.00 0.00 53 1013.4
20260509174804 71 344 1.0 8.0 0.00 0.00 0.00 53 1013.4
20260509174303 72 289 1.0 5.0 0.00 0.00 0.00 52 1013.4
20260509173803 72 321 2.0 5.0 0.00 0.00 0.00 51 1013.4
20260509173303 73 26 1.0 6.0 0.00 0.00 0.00 50 1013.4
20260509172803 73 301 2.0 5.0 0.00 0.00 0.00 50 1013.4
20260509172306 74 318 1.0 3.0 0.00 0.00 0.00 50 1013.3
20260509171804 74 18 1.0 6.0 0.00 0.00 0.00 48 1013.4
20260509171303 75 297 0.0 1.0 0.00 0.00 0.00 45 1013.4
20260509170803 75 297 1.0 3.0 0.00 0.00 0.00 44 1013.4
20260509170304 75 23 1.0 3.0 0.00 0.00 0.00 45 1013.3
20260509165803 75 66 1.0 5.0 0.00 0.00 0.00 46 1013.4
20260509165306 75 21 2.0 5.0 0.00 0.00 0.00 45 1013.4
20260509164804 76 93 2.0 5.0 0.00 0.00 0.00 45 1013.4
20260509164303 76 327 2.0 6.0 0.00 0.00 0.00 46 1013.4
20260509163803 77 296 1.0 3.0 0.00 0.00 0.00 46 1013.6
20260509163304 77 81 1.0 2.0 0.00 0.00 0.00 46 1013.6
20260509162803 77 60 1.0 5.0 0.00 0.00 0.00 44 1013.6
20260509161804 78 303 2.0 5.0 0.00 0.00 0.00 44 1013.6
20260509161303 78 341 2.0 7.0 0.00 0.00 0.00 42 1013.8
20260509160804 78 326 2.0 5.0 0.00 0.00 0.00 42 1013.9
20260509160303 78 5 1.0 5.0 0.00 0.00 0.00 43 1013.9
20260509155804 78 33 2.0 5.0 0.00 0.00 0.00 44 1013.9
20260509155306 78 300 2.0 5.0 0.00 0.00 0.00 43 1013.9
20260509154804 78 50 2.0 6.0 0.00 0.00 0.00 42 1013.9
20260509154303 79 106 1.0 2.0 0.00 0.00 0.00 43 1013.9
20260509153803 79 286 2.0 5.0 0.00 0.00 0.00 41 1013.9
20260509153303 80 65 1.0 5.0 0.00 0.00 0.00 40 1014.0
20260509152803 81 90 1.0 2.0 0.00 0.00 0.00 38 1014.0
20260509151304 79 39 2.0 5.0 0.00 0.00 0.00 41 1014.3
20260509150804 78 313 0.0 5.0 0.00 0.00 0.00 42 1014.3
20260509150303 78 358 1.0 3.0 0.00 0.00 0.00 43 1014.3
20260509145804 77 355 1.0 3.0 0.00 0.00 0.00 44 1014.3
20260509145306 75 355 1.0 2.0 0.00 0.00 0.00 47 1014.4
20260509144803 74 355 1.0 3.0 0.00 0.00 0.00 47 1014.4
20260509144303 75 307 1.0 5.0 0.00 0.00 0.00 47 1014.4
20260509143803 77 300 1.0 3.0 0.00 0.00 0.00 47 1014.4
20260509143303 77 5 0.0 5.0 0.00 0.00 0.00 45 1014.4
20260509142803 79 311 2.0 5.0 0.00 0.00 0.00 48 1014.4
20260509142306 78 28 2.0 5.0 0.00 0.00 0.00 44 1014.6
20260509141803 77 36 1.0 6.0 0.00 0.00 0.00 45 1014.6
20260509140803 79 51 2.0 5.0 0.00 0.00 0.00 43 1014.9